owner,sensor,date,latitude,longitude,vertical_datum,wind_speed,wind_to_direction,wind_speed_of_gust,qcFlag 
COMPS,ioos:station:USF.COMPS:FHP:1,2019-02-01T00:00:00Z,28.1530,-82.8010,10.0,4.08,75.41,4.7,'1111122,1111122,1111122' 
COMPS,ioos:station:USF.COMPS:FHP:1,2019-02-01T00:06:00Z,28.1530,-82.8010,10.0,4.08,74.18,4.9,'1111122,1111122,1111122' 
COMPS,ioos:station:USF.COMPS:FHP:1,2019-02-01T00:12:00Z,28.1530,-82.8010,10.0,4.19,70.79,4.8,'1111122,1111122,1111122' 
COMPS,ioos:station:USF.COMPS:FHP:1,2019-02-01T00:18:00Z,28.1530,-82.8010,10.0,4.33,75.49,5.68,'1111122,1111122,1111122' 
COMPS,ioos:station:USF.COMPS:FHP:1,2019-02-01T00:24:00Z,28.1530,-82.8010,10.0,4.95,80.0,6.27,'1111122,1111122,1111122' 
COMPS,ioos:station:USF.COMPS:FHP:1,2019-02-01T00:30:00Z,28.1530,-82.8010,10.0,4.54,76.41,5.68,'1111122,1111122,1111122' 
COMPS,ioos:station:USF.COMPS:FHP:1,2019-02-01T00:36:00Z,28.1530,-82.8010,10.0,4.72,76.51,5.68,'1111122,1111122,1111122' 
COMPS,ioos:station:USF.COMPS:FHP:1,2019-02-01T00:42:00Z,28.1530,-82.8010,10.0,4.48,73.47,5.29,'1111122,1111122,1111122' 
COMPS,ioos:station:USF.COMPS:FHP:1,2019-02-01T00:48:00Z,28.1530,-82.8010,10.0,4.31,70.76,5.19,'1111122,1111122,1111122' 
COMPS,ioos:station:USF.COMPS:FHP:1,2019-02-01T00:54:00Z,28.1530,-82.8010,10.0,3.5,69.82,4.8,'1111122,1111122,1111122' 
COMPS,ioos:station:USF.COMPS:FHP:1,2019-02-01T01:00:00Z,28.1530,-82.8010,10.0,3.11,66.09,4.21,'1111122,1111122,1111122' 
COMPS,ioos:station:USF.COMPS:FHP:1,2019-02-01T01:06:00Z,28.1530,-82.8010,10.0,3.97,65.02,4.6,'1111122,1111122,1111122' 
COMPS,ioos:station:USF.COMPS:FHP:1,2019-02-01T01:12:00Z,28.1530,-82.8010,10.0,4.42,66.17,6.37,'1111122,1111122,1111122' 
COMPS,ioos:station:USF.COMPS:FHP:1,2019-02-01T01:18:00Z,28.1530,-82.8010,10.0,5.3,77.73,7.05,'1111122,1111122,1111122' 
COMPS,ioos:station:USF.COMPS:FHP:1,2019-02-01T01:24:00Z,28.1530,-82.8010,10.0,6.4,79.68,8.33,'1111122,1111122,1111122' 
COMPS,ioos:station:USF.COMPS:FHP:1,2019-02-01T01:30:00Z,28.1530,-82.8010,10.0,6.34,82.8,8.42,'1111122,1111122,1111122' 
COMPS,ioos:station:USF.COMPS:FHP:1,2019-02-01T01:36:00Z,28.1530,-82.8010,10.0,5.82,75.53,7.54,'1111122,1111122,1111122' 
COMPS,ioos:station:USF.COMPS:FHP:1,2019-02-01T01:42:00Z,28.1530,-82.8010,10.0,4.93,76.21,5.97,'1111122,1111122,1111122' 
COMPS,ioos:station:USF.COMPS:FHP:1,2019-02-01T01:48:00Z,28.1530,-82.8010,10.0,5.28,70.79,6.56,'1111122,1111122,1111122' 
COMPS,ioos:station:USF.COMPS:FHP:1,2019-02-01T01:54:00Z,28.1530,-82.8010,10.0,5.37,69.6,6.46,'1111122,1111122,1111122' 
COMPS,ioos:station:USF.COMPS:FHP:1,2019-02-01T02:00:00Z,28.1530,-82.8010,10.0,5.5,73.8,7.74,'1111122,1111122,1111122' 
COMPS,ioos:station:USF.COMPS:FHP:1,2019-02-01T02:06:00Z,28.1530,-82.8010,10.0,4.97,79.16,6.37,'1111122,1111122,1111122' 
COMPS,ioos:station:USF.COMPS:FHP:1,2019-02-01T02:12:00Z,28.1530,-82.8010,10.0,5.3,66.79,6.27,'1111122,1111122,1111122' 
COMPS,ioos:station:USF.COMPS:FHP:1,2019-02-01T02:18:00Z,28.1530,-82.8010,10.0,5.17,71.18,6.17,'1111122,1111122,1111122' 
COMPS,ioos:station:USF.COMPS:FHP:1,2019-02-01T02:24:00Z,28.1530,-82.8010,10.0,5.28,68.58,6.85,'1111122,1111122,1111122' 
COMPS,ioos:station:USF.COMPS:FHP:1,2019-02-01T02:30:00Z,28.1530,-82.8010,10.0,5.46,66.61,6.95,'1111122,1111122,1111122' 
COMPS,ioos:station:USF.COMPS:FHP:1,2019-02-01T02:36:00Z,28.1530,-82.8010,10.0,5.1,74.88,6.37,'1111122,1111122,1111122' 
COMPS,ioos:station:USF.COMPS:FHP:1,2019-02-01T02:42:00Z,28.1530,-82.8010,10.0,5.47,83.14,8.52,'1111122,1111122,1111122' 
COMPS,ioos:station:USF.COMPS:FHP:1,2019-02-01T02:48:00Z,28.1530,-82.8010,10.0,5.99,80.97,7.64,'1111122,1111122,1111122' 
COMPS,ioos:station:USF.COMPS:FHP:1,2019-02-01T02:54:00Z,28.1530,-82.8010,10.0,5.38,74.9,7.44,'1111122,1111122,1111122' 
COMPS,ioos:station:USF.COMPS:FHP:1,2019-02-01T03:00:00Z,28.1530,-82.8010,10.0,5.58,78.13,6.95,'1111122,1111122,1111122' 
COMPS,ioos:station:USF.COMPS:FHP:1,2019-02-01T03:06:00Z,28.1530,-82.8010,10.0,5.29,70.04,6.27,'1111122,1111122,1111122' 
COMPS,ioos:station:USF.COMPS:FHP:1,2019-02-01T03:12:00Z,28.1530,-82.8010,10.0,4.3,75.5,6.07,'1111122,1111122,1111122' 
COMPS,ioos:station:USF.COMPS:FHP:1,2019-02-01T03:18:00Z,28.1530,-82.8010,10.0,3.58,73.11,4.8,'1111122,1111122,1111122' 
COMPS,ioos:station:USF.COMPS:FHP:1,2019-02-01T03:24:00Z,28.1530,-82.8010,10.0,3.82,69.87,4.9,'1111122,1111122,1111122' 
COMPS,ioos:station:USF.COMPS:FHP:1,2019-02-01T03:30:00Z,28.1530,-82.8010,10.0,4.37,69.18,5.97,'1111122,1111122,1111122' 
COMPS,ioos:station:USF.COMPS:FHP:1,2019-02-01T03:36:00Z,28.1530,-82.8010,10.0,4.58,72.44,6.07,'1111122,1111122,1111122' 
COMPS,ioos:station:USF.COMPS:FHP:1,2019-02-01T03:42:00Z,28.1530,-82.8010,10.0,4.92,77.55,6.37,'1111122,1111122,1111122' 
COMPS,ioos:station:USF.COMPS:FHP:1,2019-02-01T03:48:00Z,28.1530,-82.8010,10.0,4.69,82.82,5.78,'1111122,1111122,1111122' 
COMPS,ioos:station:USF.COMPS:FHP:1,2019-02-01T03:54:00Z,28.1530,-82.8010,10.0,5.16,85.49,6.56,'1111122,1111122,1111122' 
COMPS,ioos:station:USF.COMPS:FHP:1,2019-02-01T04:00:00Z,28.1530,-82.8010,10.0,4.84,82.31,6.56,'1111122,1111122,1111122' 
COMPS,ioos:station:USF.COMPS:FHP:1,2019-02-01T04:06:00Z,28.1530,-82.8010,10.0,5.07,77.25,6.07,'1111122,1111122,1111122' 
COMPS,ioos:station:USF.COMPS:FHP:1,2019-02-01T04:12:00Z,28.1530,-82.8010,10.0,5.3,80.39,6.95,'1111122,1111122,1111122' 
COMPS,ioos:station:USF.COMPS:FHP:1,2019-02-01T04:18:00Z,28.1530,-82.8010,10.0,4.73,79.59,6.85,'1111122,1111122,1111122' 
COMPS,ioos:station:USF.COMPS:FHP:1,2019-02-01T04:24:00Z,28.1530,-82.8010,10.0,4.89,76.79,6.27,'1111122,1111122,1111122' 
COMPS,ioos:station:USF.COMPS:FHP:1,2019-02-01T04:30:00Z,28.1530,-82.8010,10.0,5.37,82.16,6.76,'1111122,1111122,1111122' 
COMPS,ioos:station:USF.COMPS:FHP:1,2019-02-01T04:36:00Z,28.1530,-82.8010,10.0,4.97,82.3,6.37,'1111122,1111122,1111122' 
COMPS,ioos:station:USF.COMPS:FHP:1,2019-02-01T04:42:00Z,28.1530,-82.8010,10.0,5.01,87.0,6.56,'1111122,1111122,1111122' 
COMPS,ioos:station:USF.COMPS:FHP:1,2019-02-01T04:48:00Z,28.1530,-82.8010,10.0,4.59,87.27,7.54,'1111122,1111122,1111122' 
COMPS,ioos:station:USF.COMPS:FHP:1,2019-02-01T04:54:00Z,28.1530,-82.8010,10.0,4.49,84.26,5.68,'1111122,1111122,1111122' 
COMPS,ioos:station:USF.COMPS:FHP:1,2019-02-01T05:00:00Z,28.1530,-82.8010,10.0,4.72,81.15,6.17,'1111122,1111122,1111122' 
COMPS,ioos:station:USF.COMPS:FHP:1,2019-02-01T05:06:00Z,28.1530,-82.8010,10.0,4.52,88.39,6.56,'1111122,1111122,1111122' 
COMPS,ioos:station:USF.COMPS:FHP:1,2019-02-01T05:12:00Z,28.1530,-82.8010,10.0,4.46,85.22,5.48,'1111122,1111122,1111122' 
COMPS,ioos:station:USF.COMPS:FHP:1,2019-02-01T05:18:00Z,28.1530,-82.8010,10.0,4.24,82.35,5.29,'1111122,1111122,1111122' 
COMPS,ioos:station:USF.COMPS:FHP:1,2019-02-01T05:24:00Z,28.1530,-82.8010,10.0,4.78,81.3,6.07,'1111122,1111122,1111122' 
COMPS,ioos:station:USF.COMPS:FHP:1,2019-02-01T05:30:00Z,28.1530,-82.8010,10.0,4.27,76.49,5.58,'1111122,1111122,1111122' 
COMPS,ioos:station:USF.COMPS:FHP:1,2019-02-01T05:36:00Z,28.1530,-82.8010,10.0,4.29,81.74,6.37,'1111122,1111122,1111122' 
COMPS,ioos:station:USF.COMPS:FHP:1,2019-02-01T05:42:00Z,28.1530,-82.8010,10.0,4.24,71.49,5.39,'1111122,1111122,1111122' 
COMPS,ioos:station:USF.COMPS:FHP:1,2019-02-01T05:48:00Z,28.1530,-82.8010,10.0,4.08,73.21,6.07,'1111122,1111122,1111122' 
COMPS,ioos:station:USF.COMPS:FHP:1,2019-02-01T05:54:00Z,28.1530,-82.8010,10.0,4.41,76.34,6.17,'1111122,1111122,1111122' 
COMPS,ioos:station:USF.COMPS:FHP:1,2019-02-01T06:00:00Z,28.1530,-82.8010,10.0,4.61,76.67,6.46,'1111122,1111122,1111122' 
COMPS,ioos:station:USF.COMPS:FHP:1,2019-02-01T06:06:00Z,28.1530,-82.8010,10.0,4.74,84.29,6.27,'1111122,1111122,1111122' 
COMPS,ioos:station:USF.COMPS:FHP:1,2019-02-01T06:12:00Z,28.1530,-82.8010,10.0,4.99,83.22,6.07,'1111122,1111122,1111122' 
COMPS,ioos:station:USF.COMPS:FHP:1,2019-02-01T06:18:00Z,28.1530,-82.8010,10.0,4.88,87.01,6.76,'1111122,1111122,1111122' 
COMPS,ioos:station:USF.COMPS:FHP:1,2019-02-01T06:24:00Z,28.1530,-82.8010,10.0,4.59,84.96,5.97,'1111122,1111122,1111122' 
COMPS,ioos:station:USF.COMPS:FHP:1,2019-02-01T06:30:00Z,28.1530,-82.8010,10.0,4.97,79.46,5.87,'1111122,1111122,1111122' 
COMPS,ioos:station:USF.COMPS:FHP:1,2019-02-01T06:36:00Z,28.1530,-82.8010,10.0,4.85,78.55,5.87,'1111122,1111122,1111122' 
COMPS,ioos:station:USF.COMPS:FHP:1,2019-02-01T06:42:00Z,28.1530,-82.8010,10.0,4.96,78.71,6.37,'1111122,1111122,1111122' 
COMPS,ioos:station:USF.COMPS:FHP:1,2019-02-01T06:48:00Z,28.1530,-82.8010,10.0,4.9,75.97,6.07,'1111122,1111122,1111122' 
COMPS,ioos:station:USF.COMPS:FHP:1,2019-02-01T06:54:00Z,28.1530,-82.8010,10.0,5.2,75.99,6.56,'1111122,1111122,1111122' 
COMPS,ioos:station:USF.COMPS:FHP:1,2019-02-01T07:00:00Z,28.1530,-82.8010,10.0,5.02,77.03,6.37,'1111122,1111122,1111122' 
COMPS,ioos:station:USF.COMPS:FHP:1,2019-02-01T07:06:00Z,28.1530,-82.8010,10.0,5.01,78.3,5.97,'1111122,1111122,1111122' 
COMPS,ioos:station:USF.COMPS:FHP:1,2019-02-01T07:12:00Z,28.1530,-82.8010,10.0,5.04,77.93,7.25,'1111122,1111122,1111122' 
COMPS,ioos:station:USF.COMPS:FHP:1,2019-02-01T07:18:00Z,28.1530,-82.8010,10.0,5.04,77.19,6.66,'1111122,1111122,1111122' 
COMPS,ioos:station:USF.COMPS:FHP:1,2019-02-01T07:24:00Z,28.1530,-82.8010,10.0,4.5,84.5,5.87,'1111122,1111122,1111122' 
COMPS,ioos:station:USF.COMPS:FHP:1,2019-02-01T07:30:00Z,28.1530,-82.8010,10.0,5.2,86.06,6.76,'1111122,1111122,1111122' 
COMPS,ioos:station:USF.COMPS:FHP:1,2019-02-01T07:36:00Z,28.1530,-82.8010,10.0,5.25,89.11,6.85,'1111122,1111122,1111122' 
COMPS,ioos:station:USF.COMPS:FHP:1,2019-02-01T07:42:00Z,28.1530,-82.8010,10.0,5.18,85.84,6.56,'1111122,1111122,1111122' 
COMPS,ioos:station:USF.COMPS:FHP:1,2019-02-01T07:48:00Z,28.1530,-82.8010,10.0,4.22,80.64,5.48,'1111122,1111122,1111122' 
COMPS,ioos:station:USF.COMPS:FHP:1,2019-02-01T07:54:00Z,28.1530,-82.8010,10.0,4.51,72.95,5.87,'1111122,1111122,1111122' 
COMPS,ioos:station:USF.COMPS:FHP:1,2019-02-01T08:00:00Z,28.1530,-82.8010,10.0,4.42,59.43,5.68,'1111122,1111122,1111122' 
COMPS,ioos:station:USF.COMPS:FHP:1,2019-02-01T08:06:00Z,28.1530,-82.8010,10.0,4.38,60.07,5.78,'1111122,1111122,1111122' 
COMPS,ioos:station:USF.COMPS:FHP:1,2019-02-01T08:12:00Z,28.1530,-82.8010,10.0,3.83,70.19,4.6,'1111122,1111122,1111122' 
COMPS,ioos:station:USF.COMPS:FHP:1,2019-02-01T08:18:00Z,28.1530,-82.8010,10.0,3.87,75.41,4.7,'1111122,1111122,1111122' 
COMPS,ioos:station:USF.COMPS:FHP:1,2019-02-01T08:24:00Z,28.1530,-82.8010,10.0,4.36,71.58,5.97,'1111122,1111122,1111122' 
COMPS,ioos:station:USF.COMPS:FHP:1,2019-02-01T08:30:00Z,28.1530,-82.8010,10.0,4.14,72.2,5.58,'1111122,1111122,1111122' 
COMPS,ioos:station:USF.COMPS:FHP:1,2019-02-01T08:36:00Z,28.1530,-82.8010,10.0,3.41,75.43,4.21,'1111122,1111122,1111122' 
COMPS,ioos:station:USF.COMPS:FHP:1,2019-02-01T08:42:00Z,28.1530,-82.8010,10.0,3.8,82.1,4.7,'1111122,1111122,1111122' 
COMPS,ioos:station:USF.COMPS:FHP:1,2019-02-01T08:48:00Z,28.1530,-82.8010,10.0,3.41,81.5,4.7,'1111122,1111122,1111122' 
COMPS,ioos:station:USF.COMPS:FHP:1,2019-02-01T08:54:00Z,28.1530,-82.8010,10.0,4.6,79.6,5.78,'1111122,1111122,1111122' 
COMPS,ioos:station:USF.COMPS:FHP:1,2019-02-01T09:00:00Z,28.1530,-82.8010,10.0,4.53,79.46,6.17,'1111122,1111122,1111122' 
COMPS,ioos:station:USF.COMPS:FHP:1,2019-02-01T09:06:00Z,28.1530,-82.8010,10.0,4.8,75.97,5.97,'1111122,1111122,1111122' 
COMPS,ioos:station:USF.COMPS:FHP:1,2019-02-01T09:12:00Z,28.1530,-82.8010,10.0,5.06,78.44,6.66,'1111122,1111122,1111122' 
COMPS,ioos:station:USF.COMPS:FHP:1,2019-02-01T09:18:00Z,28.1530,-82.8010,10.0,5.34,79.63,7.15,'1111122,1111122,1111122' 
COMPS,ioos:station:USF.COMPS:FHP:1,2019-02-01T09:24:00Z,28.1530,-82.8010,10.0,5.27,79.35,6.17,'1111122,1111122,1111122' 
COMPS,ioos:station:USF.COMPS:FHP:1,2019-02-01T09:30:00Z,28.1530,-82.8010,10.0,5.63,85.15,8.33,'1111122,1111122,1111122' 
COMPS,ioos:station:USF.COMPS:FHP:1,2019-02-01T09:36:00Z,28.1530,-82.8010,10.0,5.41,89.01,6.95,'1111122,1111122,1111122' 
COMPS,ioos:station:USF.COMPS:FHP:1,2019-02-01T09:42:00Z,28.1530,-82.8010,10.0,5.36,92.84,7.15,'1111122,1111122,1111122' 
COMPS,ioos:station:USF.COMPS:FHP:1,2019-02-01T09:48:00Z,28.1530,-82.8010,10.0,5.41,94.29,7.54,'1111122,1111122,1111122' 
COMPS,ioos:station:USF.COMPS:FHP:1,2019-02-01T09:54:00Z,28.1530,-82.8010,10.0,5.51,96.13,6.76,'1111122,1111122,1111122' 
COMPS,ioos:station:USF.COMPS:FHP:1,2019-02-01T10:00:00Z,28.1530,-82.8010,10.0,5.83,91.84,7.44,'1111122,1111122,1111122' 
COMPS,ioos:station:USF.COMPS:FHP:1,2019-02-01T10:06:00Z,28.1530,-82.8010,10.0,5.46,95.14,6.66,'1111122,1111122,1111122' 
COMPS,ioos:station:USF.COMPS:FHP:1,2019-02-01T10:12:00Z,28.1530,-82.8010,10.0,5.87,93.17,7.54,'1111122,1111122,1111122' 
COMPS,ioos:station:USF.COMPS:FHP:1,2019-02-01T10:18:00Z,28.1530,-82.8010,10.0,5.47,88.23,7.15,'1111122,1111122,1111122' 
COMPS,ioos:station:USF.COMPS:FHP:1,2019-02-01T10:24:00Z,28.1530,-82.8010,10.0,5.45,83.68,7.44,'1111122,1111122,1111122' 
COMPS,ioos:station:USF.COMPS:FHP:1,2019-02-01T10:30:00Z,28.1530,-82.8010,10.0,5.45,82.91,7.05,'1111122,1111122,1111122' 
COMPS,ioos:station:USF.COMPS:FHP:1,2019-02-01T10:36:00Z,28.1530,-82.8010,10.0,5.83,84.22,7.05,'1111122,1111122,1111122' 
COMPS,ioos:station:USF.COMPS:FHP:1,2019-02-01T10:42:00Z,28.1530,-82.8010,10.0,5.8,90.56,7.25,'1111122,1111122,1111122' 
COMPS,ioos:station:USF.COMPS:FHP:1,2019-02-01T10:48:00Z,28.1530,-82.8010,10.0,5.93,93.55,6.85,'1111122,1111122,1111122' 
COMPS,ioos:station:USF.COMPS:FHP:1,2019-02-01T10:54:00Z,28.1530,-82.8010,10.0,6.11,91.82,6.95,'1111122,1111122,1111122' 
COMPS,ioos:station:USF.COMPS:FHP:1,2019-02-01T11:00:00Z,28.1530,-82.8010,10.0,6.22,93.02,7.44,'1111122,1111122,1111122' 
COMPS,ioos:station:USF.COMPS:FHP:1,2019-02-01T11:06:00Z,28.1530,-82.8010,10.0,5.69,94.04,6.95,'1111122,1111122,1111122' 
COMPS,ioos:station:USF.COMPS:FHP:1,2019-02-01T11:12:00Z,28.1530,-82.8010,10.0,5.46,93.86,7.05,'1111122,1111122,1111122' 
COMPS,ioos:station:USF.COMPS:FHP:1,2019-02-01T11:18:00Z,28.1530,-82.8010,10.0,5.91,94.97,6.95,'1111122,1111122,1111122' 
COMPS,ioos:station:USF.COMPS:FHP:1,2019-02-01T11:24:00Z,28.1530,-82.8010,10.0,5.19,100.06,6.46,'1111122,1111122,1111122' 
COMPS,ioos:station:USF.COMPS:FHP:1,2019-02-01T11:30:00Z,28.1530,-82.8010,10.0,5.92,100.05,7.44,'1111122,1111122,1111122' 
COMPS,ioos:station:USF.COMPS:FHP:1,2019-02-01T11:36:00Z,28.1530,-82.8010,10.0,5.42,98.97,7.05,'1111122,1111122,1111122' 
COMPS,ioos:station:USF.COMPS:FHP:1,2019-02-01T11:42:00Z,28.1530,-82.8010,10.0,5.08,98.06,6.17,'1111122,1111122,1111122' 
COMPS,ioos:station:USF.COMPS:FHP:1,2019-02-01T11:48:00Z,28.1530,-82.8010,10.0,4.96,99.65,6.07,'1111122,1111122,1111122' 
COMPS,ioos:station:USF.COMPS:FHP:1,2019-02-01T11:54:00Z,28.1530,-82.8010,10.0,5.36,97.5,7.25,'1111122,1111122,1111122' 
COMPS,ioos:station:USF.COMPS:FHP:1,2019-02-01T12:00:00Z,28.1530,-82.8010,10.0,5.26,98.95,6.46,'1111122,1111122,1111122' 
COMPS,ioos:station:USF.COMPS:FHP:1,2019-02-01T12:06:00Z,28.1530,-82.8010,10.0,4.94,98.14,5.97,'1111122,1111122,1111122' 
COMPS,ioos:station:USF.COMPS:FHP:1,2019-02-01T12:12:00Z,28.1530,-82.8010,10.0,4.63,100.06,6.07,'1111122,1111122,1111122' 
COMPS,ioos:station:USF.COMPS:FHP:1,2019-02-01T12:18:00Z,28.1530,-82.8010,10.0,4.4,96.93,5.78,'1111122,1111122,1111122' 
COMPS,ioos:station:USF.COMPS:FHP:1,2019-02-01T12:24:00Z,28.1530,-82.8010,10.0,4.26,91.57,4.9,'1111122,1111122,1111122' 
COMPS,ioos:station:USF.COMPS:FHP:1,2019-02-01T12:30:00Z,28.1530,-82.8010,10.0,4.16,93.04,5.39,'1111122,1111122,1111122' 
COMPS,ioos:station:USF.COMPS:FHP:1,2019-02-01T12:36:00Z,28.1530,-82.8010,10.0,3.96,94.4,4.8,'1111122,1111122,1111122' 
COMPS,ioos:station:USF.COMPS:FHP:1,2019-02-01T12:42:00Z,28.1530,-82.8010,10.0,4.66,90.31,6.37,'1111122,1111122,1111122' 
COMPS,ioos:station:USF.COMPS:FHP:1,2019-02-01T12:48:00Z,28.1530,-82.8010,10.0,4.8,91.17,6.17,'1111122,1111122,1111122' 
COMPS,ioos:station:USF.COMPS:FHP:1,2019-02-01T12:54:00Z,28.1530,-82.8010,10.0,4.67,86.18,5.87,'1111122,1111122,1111122' 
COMPS,ioos:station:USF.COMPS:FHP:1,2019-02-01T13:00:00Z,28.1530,-82.8010,10.0,5.02,89.64,6.27,'1111122,1111122,1111122' 
COMPS,ioos:station:USF.COMPS:FHP:1,2019-02-01T13:06:00Z,28.1530,-82.8010,10.0,4.97,95.91,6.17,'1111122,1111122,1111122' 
COMPS,ioos:station:USF.COMPS:FHP:1,2019-02-01T13:12:00Z,28.1530,-82.8010,10.0,5.3,91.76,6.17,'1111122,1111122,1111122' 
COMPS,ioos:station:USF.COMPS:FHP:1,2019-02-01T13:18:00Z,28.1530,-82.8010,10.0,5.19,92.95,6.46,'1111122,1111122,1111122' 
COMPS,ioos:station:USF.COMPS:FHP:1,2019-02-01T13:24:00Z,28.1530,-82.8010,10.0,5.26,94.01,6.66,'1111122,1111122,1111122' 
COMPS,ioos:station:USF.COMPS:FHP:1,2019-02-01T13:30:00Z,28.1530,-82.8010,10.0,4.76,95.99,6.37,'1111122,1111122,1111122' 
COMPS,ioos:station:USF.COMPS:FHP:1,2019-02-01T13:36:00Z,28.1530,-82.8010,10.0,4.69,94.98,6.17,'1111122,1111122,1111122' 
COMPS,ioos:station:USF.COMPS:FHP:1,2019-02-01T13:42:00Z,28.1530,-82.8010,10.0,4.53,93.73,5.87,'1111122,1111122,1111122' 
COMPS,ioos:station:USF.COMPS:FHP:1,2019-02-01T13:48:00Z,28.1530,-82.8010,10.0,4.5,97.22,5.68,'1111122,1111122,1111122' 
COMPS,ioos:station:USF.COMPS:FHP:1,2019-02-01T13:54:00Z,28.1530,-82.8010,10.0,4.72,92.35,5.78,'1111122,1111122,1111122' 
COMPS,ioos:station:USF.COMPS:FHP:1,2019-02-01T14:00:00Z,28.1530,-82.8010,10.0,4.37,89.76,5.68,'1111122,1111122,1111122' 
COMPS,ioos:station:USF.COMPS:FHP:1,2019-02-01T14:06:00Z,28.1530,-82.8010,10.0,4.34,90.23,5.29,'1111122,1111122,1111122' 
COMPS,ioos:station:USF.COMPS:FHP:1,2019-02-01T14:12:00Z,28.1530,-82.8010,10.0,3.77,90.63,4.8,'1111122,1111122,1111122' 
COMPS,ioos:station:USF.COMPS:FHP:1,2019-02-01T14:18:00Z,28.1530,-82.8010,10.0,4.18,83.68,5.48,'1111122,1111122,1111122' 
COMPS,ioos:station:USF.COMPS:FHP:1,2019-02-01T14:24:00Z,28.1530,-82.8010,10.0,3.72,77.37,4.9,'1111122,1111122,1111122' 
COMPS,ioos:station:USF.COMPS:FHP:1,2019-02-01T14:30:00Z,28.1530,-82.8010,10.0,2.41,80.4,4.11,'1111122,1111122,1111122' 
COMPS,ioos:station:USF.COMPS:FHP:1,2019-02-01T14:36:00Z,28.1530,-82.8010,10.0,1.75,81.59,2.93,'1111122,1111122,1111122' 
COMPS,ioos:station:USF.COMPS:FHP:1,2019-02-01T14:42:00Z,28.1530,-82.8010,10.0,1.62,78.62,3.13,'1111122,1111122,1111122' 
COMPS,ioos:station:USF.COMPS:FHP:1,2019-02-01T14:48:00Z,28.1530,-82.8010,10.0,2.52,77.46,3.33,'1111122,1111122,1111122' 
COMPS,ioos:station:USF.COMPS:FHP:1,2019-02-01T14:54:00Z,28.1530,-82.8010,10.0,2.55,77.63,3.82,'1111122,1111122,1111122' 
COMPS,ioos:station:USF.COMPS:FHP:1,2019-02-01T15:00:00Z,28.1530,-82.8010,10.0,2.5,87.47,3.72,'1111122,1111122,1111122' 
COMPS,ioos:station:USF.COMPS:FHP:1,2019-02-01T15:06:00Z,28.1530,-82.8010,10.0,3.28,89.08,4.6,'1111122,1111122,1111122' 
COMPS,ioos:station:USF.COMPS:FHP:1,2019-02-01T15:12:00Z,28.1530,-82.8010,10.0,4.13,86.79,5.19,'1111122,1111122,1111122' 
COMPS,ioos:station:USF.COMPS:FHP:1,2019-02-01T15:18:00Z,28.1530,-82.8010,10.0,3.89,94.62,5.29,'1111122,1111122,1111122' 
COMPS,ioos:station:USF.COMPS:FHP:1,2019-02-01T15:24:00Z,28.1530,-82.8010,10.0,3.12,98.92,4.31,'1111122,1111122,1111122' 
COMPS,ioos:station:USF.COMPS:FHP:1,2019-02-01T15:30:00Z,28.1530,-82.8010,10.0,2.74,94.79,3.62,'1111122,1111122,1111122' 
COMPS,ioos:station:USF.COMPS:FHP:1,2019-02-01T15:36:00Z,28.1530,-82.8010,10.0,2.21,101.45,3.03,'1111122,1111122,1111122' 
COMPS,ioos:station:USF.COMPS:FHP:1,2019-02-01T15:42:00Z,28.1530,-82.8010,10.0,2.31,117.91,4.21,'1111122,1111122,1111122' 
COMPS,ioos:station:USF.COMPS:FHP:1,2019-02-01T15:48:00Z,28.1530,-82.8010,10.0,3.84,116.2,5.19,'1111122,1111122,1111122' 
COMPS,ioos:station:USF.COMPS:FHP:1,2019-02-01T15:54:00Z,28.1530,-82.8010,10.0,3.45,117.88,4.99,'1111122,1111122,1111122' 
COMPS,ioos:station:USF.COMPS:FHP:1,2019-02-01T16:00:00Z,28.1530,-82.8010,10.0,3.37,130.57,5.39,'1111122,1111122,1111122' 
COMPS,ioos:station:USF.COMPS:FHP:1,2019-02-01T16:06:00Z,28.1530,-82.8010,10.0,3.53,122.07,4.9,'1111122,1111122,1111122' 
COMPS,ioos:station:USF.COMPS:FHP:1,2019-02-01T16:12:00Z,28.1530,-82.8010,10.0,2.01,127.99,3.23,'1111122,1111122,1111122' 
COMPS,ioos:station:USF.COMPS:FHP:1,2019-02-01T16:18:00Z,28.1530,-82.8010,10.0,2.05,121.11,4.11,'1111122,1111122,1111122' 
COMPS,ioos:station:USF.COMPS:FHP:1,2019-02-01T16:24:00Z,28.1530,-82.8010,10.0,2.8,120.97,3.72,'1111122,1111122,1111122' 
COMPS,ioos:station:USF.COMPS:FHP:1,2019-02-01T16:30:00Z,28.1530,-82.8010,10.0,2.52,113.36,4.11,'1111122,1111122,1111122' 
COMPS,ioos:station:USF.COMPS:FHP:1,2019-02-01T16:36:00Z,28.1530,-82.8010,10.0,2.76,104.7,4.01,'1111122,1111122,1111122' 
COMPS,ioos:station:USF.COMPS:FHP:1,2019-02-01T16:42:00Z,28.1530,-82.8010,10.0,2.19,114.35,4.01,'1111122,1111122,1111122' 
COMPS,ioos:station:USF.COMPS:FHP:1,2019-02-01T16:48:00Z,28.1530,-82.8010,10.0,1.82,112.95,3.03,'1111122,1111122,1111122' 
COMPS,ioos:station:USF.COMPS:FHP:1,2019-02-01T16:54:00Z,28.1530,-82.8010,10.0,1.94,122.81,3.03,'1111122,1111122,1111122' 
COMPS,ioos:station:USF.COMPS:FHP:1,2019-02-01T17:00:00Z,28.1530,-82.8010,10.0,1.25,124.37,2.05,'1111122,1111122,1111122' 
COMPS,ioos:station:USF.COMPS:FHP:1,2019-02-01T17:06:00Z,28.1530,-82.8010,10.0,1.99,120.2,3.62,'1111122,1111122,1111122' 
COMPS,ioos:station:USF.COMPS:FHP:1,2019-02-01T17:12:00Z,28.1530,-82.8010,10.0,2.85,119.21,4.41,'1111122,1111122,1111122' 
COMPS,ioos:station:USF.COMPS:FHP:1,2019-02-01T17:18:00Z,28.1530,-82.8010,10.0,2.14,122.63,4.21,'1111122,1111122,1111122' 
COMPS,ioos:station:USF.COMPS:FHP:1,2019-02-01T17:24:00Z,28.1530,-82.8010,10.0,1.06,134.06,1.86,'1111122,1111122,1111122' 
COMPS,ioos:station:USF.COMPS:FHP:1,2019-02-01T17:30:00Z,28.1530,-82.8010,10.0,0.79,127.74,1.86,'1111122,1111122,1111122' 
COMPS,ioos:station:USF.COMPS:FHP:1,2019-02-01T17:36:00Z,28.1530,-82.8010,10.0,0.96,104.2,1.95,'1111122,1111122,1111122' 
COMPS,ioos:station:USF.COMPS:FHP:1,2019-02-01T17:42:00Z,28.1530,-82.8010,10.0,0.09,333.16,0.09,'1111122,1111122,1111122' 
COMPS,ioos:station:USF.COMPS:FHP:1,2019-02-01T17:48:00Z,28.1530,-82.8010,10.0,0.09,344.06,0.09,'1111122,1111122,1111122' 
COMPS,ioos:station:USF.COMPS:FHP:1,2019-02-01T17:54:00Z,28.1530,-82.8010,10.0,0.55,352.37,2.05,'1111122,1111122,1111122' 
COMPS,ioos:station:USF.COMPS:FHP:1,2019-02-01T18:00:00Z,28.1530,-82.8010,10.0,0.09,343.95,0.09,'1111122,1111122,1111122' 
COMPS,ioos:station:USF.COMPS:FHP:1,2019-02-01T18:06:00Z,28.1530,-82.8010,10.0,0.13,345.9,1.56,'1111122,1111122,1111122' 
COMPS,ioos:station:USF.COMPS:FHP:1,2019-02-01T18:12:00Z,28.1530,-82.8010,10.0,0.09,32.68,0.09,'1111122,1111122,1111122' 
COMPS,ioos:station:USF.COMPS:FHP:1,2019-02-01T18:18:00Z,28.1530,-82.8010,10.0,0.35,357.54,1.56,'1111122,1111122,1111122' 
COMPS,ioos:station:USF.COMPS:FHP:1,2019-02-01T18:24:00Z,28.1530,-82.8010,10.0,0.09,318.9,0.09,'1111122,1111122,1111122' 
COMPS,ioos:station:USF.COMPS:FHP:1,2019-02-01T18:30:00Z,28.1530,-82.8010,10.0,0.09,334.43,0.09,'1111122,1111122,1111122' 
COMPS,ioos:station:USF.COMPS:FHP:1,2019-02-01T18:36:00Z,28.1530,-82.8010,10.0,0.27,339.55,1.46,'1111122,1111122,1111122' 
COMPS,ioos:station:USF.COMPS:FHP:1,2019-02-01T18:42:00Z,28.1530,-82.8010,10.0,0.1,339.11,0.19,'1111122,1111122,1111122' 
COMPS,ioos:station:USF.COMPS:FHP:1,2019-02-01T18:48:00Z,28.1530,-82.8010,10.0,0.09,327.79,0.09,'1111122,1111122,1111122' 
COMPS,ioos:station:USF.COMPS:FHP:1,2019-02-01T18:54:00Z,28.1530,-82.8010,10.0,0.09,323.09,0.09,'1111122,1111122,1111122' 
COMPS,ioos:station:USF.COMPS:FHP:1,2019-02-01T19:00:00Z,28.1530,-82.8010,10.0,0.09,308.92,0.09,'1111122,1111122,1111122' 
COMPS,ioos:station:USF.COMPS:FHP:1,2019-02-01T19:06:00Z,28.1530,-82.8010,10.0,0.09,285.02,0.09,'1111122,1111122,1111122' 
COMPS,ioos:station:USF.COMPS:FHP:1,2019-02-01T19:12:00Z,28.1530,-82.8010,10.0,0.09,309.78,0.09,'1111122,1111122,1111122' 
COMPS,ioos:station:USF.COMPS:FHP:1,2019-02-01T19:18:00Z,28.1530,-82.8010,10.0,0.09,329.09,0.09,'1111122,1111122,1111122' 
COMPS,ioos:station:USF.COMPS:FHP:1,2019-02-01T19:24:00Z,28.1530,-82.8010,10.0,0.09,318.63,0.09,'1111122,1111122,1111122' 
COMPS,ioos:station:USF.COMPS:FHP:1,2019-02-01T19:30:00Z,28.1530,-82.8010,10.0,0.09,284.19,0.09,'1111122,1111122,1111122' 
COMPS,ioos:station:USF.COMPS:FHP:1,2019-02-01T19:36:00Z,28.1530,-82.8010,10.0,0.16,286.27,1.27,'1111122,1111122,1111122' 